Wetterdaten: Mittwoch, 29.03.2017
Datum Zeit Temp. Auen Feucht Auen Luftdruck Regen Richtung Richtung Windben
29.03.2017 00:00 5,2 C 88 % 1026,1 hPa 0,0 mm W 262 4,8 km/h (1 Bft)
29.03.2017 00:05 5,2 C 88 % 1026,1 hPa 0,0 mm W 262 3,2 km/h (1 Bft)
29.03.2017 00:10 4,8 C 87 % 1026,1 hPa 0,0 mm W 262 4,8 km/h (1 Bft)
29.03.2017 00:15 4,0 C 88 % 1026,2 hPa 0,0 mm W 262 1,6 km/h (1 Bft)
29.03.2017 00:20 4,1 C 89 % 1026,2 hPa 0,0 mm W 262 3,2 km/h (1 Bft)
29.03.2017 00:25 4,4 C 90 % 1026,2 hPa 0,0 mm W 262 4,8 km/h (1 Bft)
29.03.2017 00:30 4,6 C 89 % 1026,2 hPa 0,0 mm W 262 4,8 km/h (1 Bft)
29.03.2017 00:35 4,6 C 89 % 1026,1 hPa 0,0 mm W 262 3,2 km/h (1 Bft)
29.03.2017 00:40 4,4 C 89 % 1026,2 hPa 0,0 mm W 262 4,8 km/h (1 Bft)
29.03.2017 00:45 4,6 C 89 % 1026,2 hPa 0,0 mm W 262 4,8 km/h (1 Bft)
29.03.2017 00:50 4,2 C 88 % 1026,2 hPa 0,0 mm W 262 1,6 km/h (1 Bft)
29.03.2017 00:55 4,3 C 90 % 1026,2 hPa 0,0 mm W 262 4,8 km/h (1 Bft)
29.03.2017 01:00 4,7 C 90 % 1026,2 hPa 0,0 mm W 262 4,8 km/h (1 Bft)
29.03.2017 01:05 3,8 C 88 % 1026,3 hPa 0,0 mm W 262 1,6 km/h (1 Bft)
29.03.2017 01:10 4,1 C 90 % 1026,3 hPa 0,0 mm W 262 3,2 km/h (1 Bft)
29.03.2017 01:15 3,7 C 89 % 1026,3 hPa 0,0 mm W 262 1,6 km/h (1 Bft)
29.03.2017 01:20 3,4 C 90 % 1026,3 hPa 0,0 mm W 262 0,0 km/h (0 Bft)
29.03.2017 01:25 3,5 C 90 % 1026,3 hPa 0,0 mm W 262 1,6 km/h (1 Bft)
29.03.2017 01:30 3,5 C 90 % 1026,3 hPa 0,0 mm W 262 0,0 km/h (0 Bft)
29.03.2017 01:35 3,5 C 90 % 1026,3 hPa 0,0 mm W 262 1,6 km/h (1 Bft)
29.03.2017 01:40 3,3 C 90 % 1026,3 hPa 0,0 mm W 262 1,6 km/h (1 Bft)
29.03.2017 01:45 3,6 C 91 % 1026,3 hPa 0,0 mm W 262 3,2 km/h (1 Bft)
29.03.2017 01:50 3,8 C 91 % 1026,3 hPa 0,0 mm W 262 3,2 km/h (1 Bft)
29.03.2017 01:55 3,9 C 90 % 1026,4 hPa 0,0 mm W 262 3,2 km/h (1 Bft)
29.03.2017 02:00 3,8 C 90 % 1026,3 hPa 0,0 mm W 262 3,2 km/h (1 Bft)
29.03.2017 02:05 3,7 C 90 % 1026,2 hPa 0,0 mm W 262 0,0 km/h (0 Bft)
29.03.2017 02:10 3,6 C 90 % 1026,2 hPa 0,0 mm W 262 0,0 km/h (0 Bft)
29.03.2017 02:15 3,3 C 89 % 1026,3 hPa 0,0 mm W 262 0,0 km/h (0 Bft)
29.03.2017 02:20 3,3 C 90 % 1026,3 hPa 0,0 mm W 262 3,2 km/h (1 Bft)
29.03.2017 02:25 3,7 C 91 % 1026,3 hPa 0,0 mm W 262 3,2 km/h (1 Bft)
29.03.2017 02:30 3,9 C 90 % 1026,4 hPa 0,0 mm W 262 0,0 km/h (0 Bft)
29.03.2017 02:35 4,1 C 90 % 1026,3 hPa 0,0 mm W 262 4,8 km/h (1 Bft)
29.03.2017 02:40 4,2 C 90 % 1026,4 hPa 0,0 mm W 262 3,2 km/h (1 Bft)
29.03.2017 02:45 3,9 C 88 % 1026,4 hPa 0,0 mm W 262 1,6 km/h (1 Bft)
29.03.2017 02:50 3,4 C 89 % 1026,4 hPa 0,0 mm W 262 0,0 km/h (0 Bft)
29.03.2017 02:55 3,3 C 90 % 1026,4 hPa 0,0 mm W 262 0,0 km/h (0 Bft)
29.03.2017 03:00 3,3 C 90 % 1026,3 hPa 0,0 mm W 262 3,2 km/h (1 Bft)
29.03.2017 03:05 3,7 C 91 % 1026,4 hPa 0,0 mm W 262 4,8 km/h (1 Bft)
29.03.2017 03:10 3,7 C 90 % 1026,4 hPa 0,0 mm W 262 4,8 km/h (1 Bft)
29.03.2017 03:15 3,3 C 89 % 1026,4 hPa 0,0 mm W 262 1,6 km/h (1 Bft)
29.03.2017 03:20 3,1 C 90 % 1026,4 hPa 0,0 mm W 262 1,6 km/h (1 Bft)
29.03.2017 03:25 2,8 C 90 % 1026,3 hPa 0,0 mm W 262 3,2 km/h (1 Bft)
29.03.2017 03:30 2,9 C 91 % 1026,3 hPa 0,0 mm W 262 3,2 km/h (1 Bft)
29.03.2017 03:35 3,0 C 91 % 1026,3 hPa 0,0 mm W 262 0,0 km/h (0 Bft)
29.03.2017 03:40 3,0 C 91 % 1026,3 hPa 0,0 mm W 262 0,0 km/h (0 Bft)
29.03.2017 03:45 2,8 C 90 % 1026,3 hPa 0,0 mm W 262 0,0 km/h (0 Bft)
29.03.2017 03:50 2,9 C 91 % 1026,3 hPa 0,0 mm W 262 0,0 km/h (0 Bft)
29.03.2017 03:55 3,0 C 91 % 1026,3 hPa 0,0 mm W 262 1,6 km/h (1 Bft)
29.03.2017 04:00 2,8 C 91 % 1026,3 hPa 0,0 mm W 262 0,0 km/h (0 Bft)
29.03.2017 04:05 2,8 C 91 % 1026,3 hPa 0,0 mm W 262 0,0 km/h (0 Bft)
29.03.2017 04:10 2,8 C 91 % 1026,3 hPa 0,0 mm W 262 3,2 km/h (1 Bft)
29.03.2017 04:15 3,1 C 91 % 1026,3 hPa 0,0 mm W 262 4,8 km/h (1 Bft)
29.03.2017 04:20 2,8 C 91 % 1026,2 hPa 0,0 mm W 262 0,0 km/h (0 Bft)
29.03.2017 04:25 2,8 C 91 % 1026,2 hPa 0,0 mm W 262 0,0 km/h (0 Bft)
29.03.2017 04:30 2,9 C 91 % 1026,3 hPa 0,0 mm W 262 3,2 km/h (1 Bft)
29.03.2017 04:35 3,1 C 91 % 1026,2 hPa 0,0 mm W 262 1,6 km/h (1 Bft)
29.03.2017 04:40 3,3 C 92 % 1026,2 hPa 0,0 mm W 262 1,6 km/h (1 Bft)
29.03.2017 04:45 3,4 C 92 % 1026,2 hPa 0,0 mm W 262 0,0 km/h (0 Bft)
29.03.2017 04:50 3,3 C 91 % 1026,2 hPa 0,0 mm W 262 0,0 km/h (0 Bft)
29.03.2017 04:55 3,7 C 92 % 1026,2 hPa 0,0 mm W 262 1,6 km/h (1 Bft)
29.03.2017 05:00 3,8 C 91 % 1026,1 hPa 0,0 mm W 262 1,6 km/h (1 Bft)
29.03.2017 05:05 3,8 C 91 % 1026,1 hPa 0,0 mm W 262 0,0 km/h (0 Bft)
29.03.2017 05:10 3,7 C 91 % 1026,1 hPa 0,0 mm W 262 0,0 km/h (0 Bft)
29.03.2017 05:15 3,9 C 92 % 1026,2 hPa 0,0 mm W 262 0,0 km/h (0 Bft)
29.03.2017 05:20 4,0 C 92 % 1026,2 hPa 0,0 mm W 262 0,0 km/h (0 Bft)
29.03.2017 05:25 4,1 C 91 % 1026,2 hPa 0,0 mm W 262 0,0 km/h (0 Bft)
29.03.2017 05:30 4,1 C 91 % 1026,2 hPa 0,0 mm W 262 1,6 km/h (1 Bft)
29.03.2017 05:35 3,9 C 91 % 1026,1 hPa 0,0 mm W 262 0,0 km/h (0 Bft)
29.03.2017 05:40 4,0 C 91 % 1026,1 hPa 0,0 mm W 262 1,6 km/h (1 Bft)
29.03.2017 05:45 4,1 C 91 % 1026,1 hPa 0,0 mm W 262 3,2 km/h (1 Bft)
29.03.2017 05:50 3,9 C 91 % 1026,1 hPa 0,0 mm W 262 1,6 km/h (1 Bft)
29.03.2017 05:55 4,1 C 91 % 1026,2 hPa 0,0 mm W 262 3,2 km/h (1 Bft)
29.03.2017 06:00 4,4 C 91 % 1026,2 hPa 0,0 mm W 262 3,2 km/h (1 Bft)
29.03.2017 06:05 4,6 C 91 % 1026,2 hPa 0,0 mm W 262 3,2 km/h (1 Bft)
29.03.2017 06:10 4,6 C 91 % 1026,2 hPa 0,0 mm W 262 3,2 km/h (1 Bft)
29.03.2017 06:15 4,7 C 90 % 1026,2 hPa 0,0 mm W 262 4,8 km/h (1 Bft)
29.03.2017 06:20 4,7 C 90 % 1026,2 hPa 0,0 mm W 262 4,8 km/h (1 Bft)
29.03.2017 06:25 4,7 C 90 % 1026,2 hPa 0,0 mm W 262 1,6 km/h (1 Bft)
29.03.2017 06:30 4,8 C 90 % 1026,2 hPa 0,0 mm W 262 1,6 km/h (1 Bft)
29.03.2017 06:35 5,1 C 90 % 1026,3 hPa 0,0 mm W 262 3,2 km/h (1 Bft)
29.03.2017 06:40 5,3 C 90 % 1026,3 hPa 0,0 mm W 262 3,2 km/h (1 Bft)
29.03.2017 06:45 5,4 C 90 % 1026,4 hPa 0,0 mm W 264 6,4 km/h (2 Bft)
29.03.2017 06:50 5,6 C 89 % 1026,5 hPa 0,0 mm W 264 4,8 km/h (1 Bft)
29.03.2017 06:55 5,7 C 89 % 1026,5 hPa 0,0 mm W 264 0,0 km/h (0 Bft)
29.03.2017 07:00 5,8 C 89 % 1026,5 hPa 0,0 mm W 264 0,0 km/h (0 Bft)
29.03.2017 07:05 6,0 C 89 % 1026,7 hPa 0,0 mm W 264 3,2 km/h (1 Bft)
29.03.2017 07:10 6,1 C 89 % 1026,6 hPa 0,0 mm W 264 3,2 km/h (1 Bft)
29.03.2017 07:15 6,3 C 89 % 1026,7 hPa 0,0 mm W 264 4,8 km/h (1 Bft)
29.03.2017 07:20 6,3 C 90 % 1026,8 hPa 0,0 mm W 264 3,2 km/h (1 Bft)
29.03.2017 07:25 6,4 C 90 % 1026,8 hPa 0,0 mm W 264 3,2 km/h (1 Bft)
29.03.2017 07:30 6,5 C 90 % 1026,8 hPa 0,0 mm W 264 3,2 km/h (1 Bft)
29.03.2017 07:35 6,6 C 90 % 1026,8 hPa 0,0 mm W 264 6,4 km/h (2 Bft)
29.03.2017 07:40 6,8 C 89 % 1026,9 hPa 0,0 mm W 264 8,0 km/h (2 Bft)
29.03.2017 07:45 7,0 C 89 % 1027,0 hPa 0,0 mm W 264 6,4 km/h (2 Bft)
29.03.2017 07:50 7,1 C 89 % 1027,0 hPa 0,0 mm W 264 1,6 km/h (1 Bft)
29.03.2017 07:55 7,1 C 89 % 1027,0 hPa 0,0 mm W 264 3,2 km/h (1 Bft)
29.03.2017 08:00 7,2 C 89 % 1027,1 hPa 0,0 mm W 264 3,2 km/h (1 Bft)
29.03.2017 08:05 7,3 C 89 % 1027,1 hPa 0,0 mm W 264 4,8 km/h (1 Bft)
29.03.2017 08:10 7,3 C 89 % 1027,1 hPa 0,0 mm W 264 4,8 km/h (1 Bft)
29.03.2017 08:15 7,5 C 90 % 1027,2 hPa 0,0 mm W 264 3,2 km/h (1 Bft)
29.03.2017 08:20 7,7 C 90 % 1027,2 hPa 0,0 mm W 264 4,8 km/h (1 Bft)
29.03.2017 08:25 7,9 C 90 % 1027,2 hPa 0,0 mm W 264 4,8 km/h (1 Bft)
29.03.2017 08:30 8,1 C 89 % 1027,1 hPa 0,0 mm W 265 8,0 km/h (2 Bft)
29.03.2017 08:35 8,3 C 89 % 1027,2 hPa 0,0 mm W 265 3,2 km/h (1 Bft)
29.03.2017 08:40 9,0 C 89 % 1027,2 hPa 0,0 mm W 265 4,8 km/h (1 Bft)
29.03.2017 08:45 9,6 C 88 % 1027,2 hPa 0,0 mm W 264 6,4 km/h (2 Bft)
29.03.2017 08:50 9,9 C 87 % 1027,2 hPa 0,0 mm W 265 4,8 km/h (1 Bft)
29.03.2017 08:55 10,4 C 87 % 1027,2 hPa 0,0 mm W 265 4,8 km/h (1 Bft)
29.03.2017 09:00 11,4 C 85 % 1027,3 hPa 0,0 mm W 265 6,4 km/h (2 Bft)
29.03.2017 09:05 12,5 C 81 % 1027,2 hPa 0,0 mm W 260 6,4 km/h (2 Bft)
29.03.2017 09:10 13,3 C 78 % 1027,3 hPa 0,0 mm W 261 6,4 km/h (2 Bft)
29.03.2017 09:15 13,5 C 71 % 1027,3 hPa 0,0 mm W 267 8,0 km/h (2 Bft)
29.03.2017 09:20 14,2 C 70 % 1027,2 hPa 0,0 mm W 271 8,0 km/h (2 Bft)
29.03.2017 09:25 14,6 C 66 % 1027,3 hPa 0,0 mm W-SW 257 9,7 km/h (2 Bft)
29.03.2017 09:30 14,1 C 64 % 1027,3 hPa 0,0 mm W 272 12,9 km/h (3 Bft)
29.03.2017 09:35 13,7 C 65 % 1027,3 hPa 0,0 mm W 274 12,9 km/h (3 Bft)
29.03.2017 09:40 13,4 C 64 % 1027,4 hPa 0,0 mm W 263 16,1 km/h (3 Bft)
29.03.2017 09:45 13,2 C 65 % 1027,3 hPa 0,0 mm W 269 11,3 km/h (2 Bft)
29.03.2017 09:50 13,6 C 66 % 1027,4 hPa 0,0 mm W-SW 256 12,9 km/h (3 Bft)
29.03.2017 09:55 14,2 C 64 % 1027,4 hPa 0,0 mm W 261 11,3 km/h (2 Bft)
29.03.2017 10:00 14,9 C 62 % 1027,5 hPa 0,0 mm W 269 12,9 km/h (3 Bft)
29.03.2017 10:05 15,3 C 60 % 1027,4 hPa 0,0 mm W 265 12,9 km/h (3 Bft)
29.03.2017 10:10 15,5 C 60 % 1027,5 hPa 0,0 mm W 277 14,5 km/h (3 Bft)
29.03.2017 10:15 15,9 C 58 % 1027,5 hPa 0,0 mm W 267 14,5 km/h (3 Bft)
29.03.2017 10:20 16,2 C 59 % 1027,5 hPa 0,0 mm W-SW 254 12,9 km/h (3 Bft)
29.03.2017 10:25 16,7 C 58 % 1027,6 hPa 0,0 mm W-SW 252 14,5 km/h (3 Bft)
29.03.2017 10:30 16,9 C 56 % 1027,5 hPa 0,0 mm W 279 12,9 km/h (3 Bft)
29.03.2017 10:35 15,8 C 56 % 1027,6 hPa 0,0 mm W 263 17,7 km/h (3 Bft)
29.03.2017 10:40 14,9 C 59 % 1027,7 hPa 0,0 mm W-SW 242 16,1 km/h (3 Bft)
29.03.2017 10:45 14,7 C 62 % 1027,6 hPa 0,0 mm W-SW 257 11,3 km/h (2 Bft)
29.03.2017 10:50 14,9 C 61 % 1027,6 hPa 0,0 mm W 275 11,3 km/h (2 Bft)
29.03.2017 10:55 14,8 C 62 % 1027,6 hPa 0,0 mm W 261 9,7 km/h (2 Bft)
29.03.2017 11:00 16,0 C 60 % 1027,5 hPa 0,0 mm W-SW 250 8,0 km/h (2 Bft)
29.03.2017 11:05 16,3 C 57 % 1027,6 hPa 0,0 mm W-SW 258 11,3 km/h (2 Bft)
29.03.2017 11:10 15,6 C 60 % 1027,6 hPa 0,0 mm NW 309 11,3 km/h (2 Bft)
29.03.2017 11:15 15,3 C 61 % 1027,6 hPa 0,0 mm W 261 14,5 km/h (3 Bft)
29.03.2017 11:20 15,7 C 61 % 1027,6 hPa 0,0 mm W 267 11,3 km/h (2 Bft)
29.03.2017 11:25 15,3 C 61 % 1027,6 hPa 0,0 mm W 261 14,5 km/h (3 Bft)
29.03.2017 11:30 14,9 C 62 % 1027,5 hPa 0,0 mm W 274 11,3 km/h (2 Bft)
29.03.2017 11:35 15,0 C 64 % 1027,5 hPa 0,0 mm W 259 9,7 km/h (2 Bft)
29.03.2017 11:40 15,1 C 63 % 1027,4 hPa 0,0 mm W 262 9,7 km/h (2 Bft)
29.03.2017 11:45 14,9 C 63 % 1027,5 hPa 0,0 mm W 260 9,7 km/h (2 Bft)
29.03.2017 11:50 14,8 C 64 % 1027,5 hPa 0,0 mm W 261 8,0 km/h (2 Bft)
29.03.2017 11:55 16,1 C 62 % 1027,5 hPa 0,0 mm W-SW 249 11,3 km/h (2 Bft)
29.03.2017 12:00 15,8 C 60 % 1027,5 hPa 0,0 mm W 261 12,9 km/h (3 Bft)
29.03.2017 12:05 15,7 C 63 % 1027,5 hPa 0,0 mm W 277 6,4 km/h (2 Bft)
29.03.2017 12:10 15,8 C 61 % 1027,4 hPa 0,0 mm W 261 12,9 km/h (3 Bft)
29.03.2017 12:15 16,2 C 62 % 1027,4 hPa 0,0 mm W 261 11,3 km/h (2 Bft)
29.03.2017 12:20 16,3 C 60 % 1027,4 hPa 0,0 mm W-SW 249 12,9 km/h (3 Bft)
29.03.2017 12:25 16,3 C 61 % 1027,3 hPa 0,0 mm W-SW 256 12,9 km/h (3 Bft)
29.03.2017 12:30 16,7 C 59 % 1027,3 hPa 0,0 mm W 271 11,3 km/h (2 Bft)
29.03.2017 12:35 17,0 C 61 % 1027,1 hPa 0,0 mm W 269 8,0 km/h (2 Bft)
29.03.2017 12:40 17,0 C 58 % 1027,1 hPa 0,0 mm W 268 11,3 km/h (2 Bft)
29.03.2017 12:45 17,0 C 59 % 1027,1 hPa 0,0 mm W 261 9,7 km/h (2 Bft)
29.03.2017 12:50 17,2 C 59 % 1027,0 hPa 0,0 mm W-SW 253 11,3 km/h (2 Bft)
29.03.2017 12:55 16,7 C 59 % 1026,9 hPa 0,0 mm W 269 14,5 km/h (3 Bft)
29.03.2017 13:00 16,8 C 60 % 1026,9 hPa 0,0 mm W 269 9,7 km/h (2 Bft)
29.03.2017 13:05 17,4 C 58 % 1026,8 hPa 0,0 mm W 270 9,7 km/h (2 Bft)
29.03.2017 13:10 16,9 C 58 % 1026,8 hPa 0,0 mm W 263 9,7 km/h (2 Bft)
29.03.2017 13:15 17,3 C 59 % 1026,7 hPa 0,0 mm W-SW 258 11,3 km/h (2 Bft)
29.03.2017 13:20 17,3 C 55 % 1026,7 hPa 0,0 mm W 262 16,1 km/h (3 Bft)
29.03.2017 13:25 17,3 C 58 % 1026,6 hPa 0,0 mm W 262 14,5 km/h (3 Bft)
29.03.2017 13:30 17,0 C 57 % 1026,5 hPa 0,0 mm W 266 14,5 km/h (3 Bft)
29.03.2017 13:35 17,2 C 58 % 1026,5 hPa 0,0 mm W 281 11,3 km/h (2 Bft)
29.03.2017 13:40 18,4 C 58 % 1026,4 hPa 0,0 mm W-NW 298 8,0 km/h (2 Bft)
29.03.2017 13:45 18,6 C 55 % 1026,3 hPa 0,0 mm W 269 11,3 km/h (2 Bft)
29.03.2017 13:50 18,6 C 56 % 1026,2 hPa 0,0 mm W-SW 257 14,5 km/h (3 Bft)
29.03.2017 13:55 18,5 C 54 % 1026,3 hPa 0,0 mm W 276 16,1 km/h (3 Bft)
29.03.2017 14:00 18,0 C 55 % 1026,2 hPa 0,0 mm W 275 11,3 km/h (2 Bft)
29.03.2017 14:05 17,8 C 55 % 1026,2 hPa 0,0 mm W 262 11,3 km/h (2 Bft)
29.03.2017 14:10 18,1 C 56 % 1026,0 hPa 0,0 mm W 279 11,3 km/h (2 Bft)
29.03.2017 14:15 18,6 C 54 % 1026,0 hPa 0,0 mm W-SW 251 14,5 km/h (3 Bft)
29.03.2017 14:20 18,3 C 52 % 1026,0 hPa 0,0 mm W 265 20,9 km/h (4 Bft)
29.03.2017 14:25 18,4 C 53 % 1025,9 hPa 0,0 mm W 263 14,5 km/h (3 Bft)
29.03.2017 14:30 18,3 C 53 % 1025,8 hPa 0,0 mm W 263 14,5 km/h (3 Bft)
29.03.2017 14:35 18,6 C 53 % 1025,8 hPa 0,0 mm W 281 20,9 km/h (4 Bft)
29.03.2017 14:40 18,2 C 52 % 1025,8 hPa 0,0 mm W-SW 253 12,9 km/h (3 Bft)
29.03.2017 14:45 18,1 C 53 % 1025,6 hPa 0,0 mm W-SW 257 16,1 km/h (3 Bft)
29.03.2017 14:50 18,2 C 51 % 1025,7 hPa 0,0 mm W 259 16,1 km/h (3 Bft)
29.03.2017 14:55 17,7 C 55 % 1025,7 hPa 0,0 mm W 265 12,9 km/h (3 Bft)
29.03.2017 15:00 17,4 C 55 % 1025,6 hPa 0,0 mm W 274 12,9 km/h (3 Bft)
29.03.2017 15:05 17,6 C 52 % 1025,6 hPa 0,0 mm W 279 14,5 km/h (3 Bft)
29.03.2017 15:10 17,8 C 51 % 1025,5 hPa 0,0 mm W-SW 246 17,7 km/h (3 Bft)
29.03.2017 15:15 18,0 C 53 % 1025,5 hPa 0,0 mm W 263 16,1 km/h (3 Bft)
29.03.2017 15:20 18,1 C 52 % 1025,4 hPa 0,0 mm W 278 17,7 km/h (3 Bft)
29.03.2017 15:25 18,1 C 51 % 1025,3 hPa 0,0 mm W-NW 287 17,7 km/h (3 Bft)
29.03.2017 15:30 18,0 C 49 % 1025,4 hPa 0,0 mm W-SW 252 16,1 km/h (3 Bft)
29.03.2017 15:35 17,7 C 50 % 1025,3 hPa 0,0 mm W-NW 288 11,3 km/h (2 Bft)
29.03.2017 15:40 17,3 C 50 % 1025,3 hPa 0,0 mm W 262 17,7 km/h (3 Bft)
29.03.2017 15:45 17,2 C 51 % 1025,2 hPa 0,0 mm W 269 9,7 km/h (2 Bft)
29.03.2017 15:50 17,8 C 50 % 1025,1 hPa 0,0 mm W 278 11,3 km/h (2 Bft)
29.03.2017 15:55 17,6 C 50 % 1025,1 hPa 0,0 mm W 266 16,1 km/h (3 Bft)
29.03.2017 16:00 17,4 C 50 % 1025,0 hPa 0,0 mm W-NW 292 14,5 km/h (3 Bft)
29.03.2017 16:05 17,4 C 51 % 1025,0 hPa 0,0 mm W 267 9,7 km/h (2 Bft)
29.03.2017 16:10 17,4 C 51 % 1025,0 hPa 0,0 mm W-SW 254 12,9 km/h (3 Bft)
29.03.2017 16:15 17,6 C 51 % 1025,0 hPa 0,0 mm W 277 19,3 km/h (3 Bft)
29.03.2017 16:20 17,7 C 50 % 1025,0 hPa 0,0 mm W 268 14,5 km/h (3 Bft)
29.03.2017 16:25 17,6 C 51 % 1024,9 hPa 0,0 mm W 271 12,9 km/h (3 Bft)
29.03.2017 16:30 17,7 C 48 % 1024,9 hPa 0,0 mm W 267 19,3 km/h (3 Bft)
29.03.2017 16:35 17,8 C 49 % 1024,7 hPa 0,0 mm W 269 17,7 km/h (3 Bft)
29.03.2017 16:40 17,8 C 49 % 1024,7 hPa 0,0 mm W-NW 286 14,5 km/h (3 Bft)
29.03.2017 16:45 17,8 C 49 % 1024,7 hPa 0,0 mm SW 231 16,1 km/h (3 Bft)
29.03.2017 16:50 17,6 C 49 % 1024,7 hPa 0,0 mm W 277 14,5 km/h (3 Bft)
29.03.2017 16:55 17,4 C 51 % 1024,6 hPa 0,0 mm W-SW 246 17,7 km/h (3 Bft)
29.03.2017 17:00 17,4 C 51 % 1024,6 hPa 0,0 mm W-SW 247 14,5 km/h (3 Bft)
29.03.2017 17:05 17,4 C 50 % 1024,6 hPa 0,0 mm W-SW 248 14,5 km/h (3 Bft)
29.03.2017 17:10 17,4 C 51 % 1024,5 hPa 0,0 mm W 262 14,5 km/h (3 Bft)
29.03.2017 17:15 17,5 C 51 % 1024,4 hPa 0,0 mm W-SW 257 6,4 km/h (2 Bft)
29.03.2017 17:20 17,6 C 51 % 1024,4 hPa 0,0 mm W 261 14,5 km/h (3 Bft)
29.03.2017 17:25 17,4 C 50 % 1024,5 hPa 0,0 mm W 273 14,5 km/h (3 Bft)
29.03.2017 17:30 17,3 C 51 % 1024,4 hPa 0,0 mm W 277 9,7 km/h (2 Bft)
29.03.2017 17:35 17,3 C 51 % 1024,4 hPa 0,0 mm W-NW 286 12,9 km/h (3 Bft)
29.03.2017 17:40 17,2 C 51 % 1024,4 hPa 0,0 mm W-NW 292 14,5 km/h (3 Bft)
29.03.2017 17:45 17,0 C 51 % 1024,4 hPa 0,0 mm W 276 11,3 km/h (2 Bft)
29.03.2017 17:50 16,8 C 51 % 1024,4 hPa 0,0 mm W 281 11,3 km/h (2 Bft)
29.03.2017 17:55 16,7 C 52 % 1024,4 hPa 0,0 mm W 265 12,9 km/h (3 Bft)
29.03.2017 18:00 16,7 C 52 % 1024,4 hPa 0,0 mm W 260 11,3 km/h (2 Bft)
29.03.2017 18:05 16,7 C 53 % 1024,4 hPa 0,0 mm W 263 8,0 km/h (2 Bft)
29.03.2017 18:10 16,7 C 53 % 1024,4 hPa 0,0 mm W-SW 252 9,7 km/h (2 Bft)
29.03.2017 18:15 16,6 C 52 % 1024,4 hPa 0,0 mm SW 234 11,3 km/h (2 Bft)
29.03.2017 18:20 16,6 C 53 % 1024,4 hPa 0,0 mm W-SW 254 6,4 km/h (2 Bft)
29.03.2017 18:25 16,2 C 55 % 1024,4 hPa 0,0 mm W-SW 254 4,8 km/h (1 Bft)
29.03.2017 18:30 16,1 C 55 % 1024,4 hPa 0,0 mm W 281 6,4 km/h (2 Bft)
29.03.2017 18:35 16,2 C 55 % 1024,5 hPa 0,0 mm W-SW 241 9,7 km/h (2 Bft)
29.03.2017 18:40 16,1 C 55 % 1024,6 hPa 0,0 mm W 274 8,0 km/h (2 Bft)
29.03.2017 18:45 16,0 C 55 % 1024,6 hPa 0,0 mm W 265 8,0 km/h (2 Bft)
29.03.2017 18:50 15,9 C 56 % 1024,6 hPa 0,0 mm W 268 4,8 km/h (1 Bft)
29.03.2017 18:55 15,5 C 58 % 1024,7 hPa 0,0 mm W 268 4,8 km/h (1 Bft)
29.03.2017 19:00 15,0 C 60 % 1024,7 hPa 0,0 mm W 268 1,6 km/h (1 Bft)
29.03.2017 19:05 14,5 C 63 % 1024,8 hPa 0,0 mm W 268 1,6 km/h (1 Bft)
29.03.2017 19:10 14,0 C 65 % 1024,7 hPa 0,0 mm W 268 1,6 km/h (1 Bft)
29.03.2017 19:15 13,7 C 66 % 1024,8 hPa 0,0 mm W 268 1,6 km/h (1 Bft)
29.03.2017 19:20 13,5 C 67 % 1024,9 hPa 0,0 mm W 268 1,6 km/h (1 Bft)
29.03.2017 19:25 13,3 C 68 % 1024,8 hPa 0,0 mm W 268 0,0 km/h (0 Bft)
29.03.2017 19:30 12,9 C 69 % 1024,9 hPa 0,0 mm W 268 1,6 km/h (1 Bft)
29.03.2017 19:35 12,7 C 69 % 1024,9 hPa 0,0 mm W 268 0,0 km/h (0 Bft)
29.03.2017 19:40 12,0 C 71 % 1025,0 hPa 0,0 mm W 268 0,0 km/h (0 Bft)
29.03.2017 19:45 11,7 C 73 % 1025,1 hPa 0,0 mm W 268 3,2 km/h (1 Bft)
29.03.2017 19:50 11,5 C 74 % 1025,1 hPa 0,0 mm W 268 0,0 km/h (0 Bft)
29.03.2017 19:55 11,3 C 74 % 1025,2 hPa 0,0 mm W 268 0,0 km/h (0 Bft)
29.03.2017 20:00 11,0 C 74 % 1025,3 hPa 0,0 mm W 268 0,0 km/h (0 Bft)
29.03.2017 20:05 10,8 C 76 % 1025,4 hPa 0,0 mm W 268 0,0 km/h (0 Bft)
29.03.2017 20:10 10,6 C 76 % 1025,5 hPa 0,0 mm W 268 0,0 km/h (0 Bft)
29.03.2017 20:15 10,3 C 76 % 1025,5 hPa 0,0 mm W 268 0,0 km/h (0 Bft)
29.03.2017 20:20 10,1 C 78 % 1025,6 hPa 0,0 mm W 268 0,0 km/h (0 Bft)
29.03.2017 20:25 9,7 C 78 % 1025,6 hPa 0,0 mm W 268 1,6 km/h (1 Bft)
29.03.2017 20:30 9,2 C 79 % 1025,7 hPa 0,0 mm W 268 0,0 km/h (0 Bft)
29.03.2017 20:35 8,9 C 80 % 1025,8 hPa 0,0 mm W 268 1,6 km/h (1 Bft)
29.03.2017 20:40 8,6 C 82 % 1025,8 hPa 0,0 mm W 268 3,2 km/h (1 Bft)
29.03.2017 20:45 8,7 C 83 % 1025,9 hPa 0,0 mm W 268 1,6 km/h (1 Bft)
29.03.2017 20:50 8,8 C 83 % 1026,0 hPa 0,0 mm W 268 0,0 km/h (0 Bft)
29.03.2017 20:55 8,7 C 82 % 1026,1 hPa 0,0 mm W 268 1,6 km/h (1 Bft)
29.03.2017 21:00 8,3 C 82 % 1026,1 hPa 0,0 mm W 268 1,6 km/h (1 Bft)
29.03.2017 21:05 7,9 C 85 % 1026,2 hPa 0,0 mm W 268 0,0 km/h (0 Bft)
29.03.2017 21:10 7,9 C 85 % 1026,2 hPa 0,0 mm W 268 0,0 km/h (0 Bft)
29.03.2017 21:15 7,9 C 85 % 1026,2 hPa 0,0 mm W 268 0,0 km/h (0 Bft)
29.03.2017 21:20 7,1 C 84 % 1026,3 hPa 0,0 mm W 268 0,0 km/h (0 Bft)
29.03.2017 21:25 7,1 C 86 % 1026,3 hPa 0,0 mm W 268 1,6 km/h (1 Bft)
29.03.2017 21:30 6,8 C 87 % 1026,3 hPa 0,0 mm W 268 1,6 km/h (1 Bft)
29.03.2017 21:35 7,1 C 88 % 1026,3 hPa 0,0 mm W 268 3,2 km/h (1 Bft)
29.03.2017 21:40 7,4 C 88 % 1026,4 hPa 0,0 mm W 268 1,6 km/h (1 Bft)
29.03.2017 21:45 7,2 C 87 % 1026,4 hPa 0,0 mm W 268 1,6 km/h (1 Bft)
29.03.2017 21:50 7,0 C 86 % 1026,5 hPa 0,0 mm W 268 0,0 km/h (0 Bft)
29.03.2017 21:55 6,6 C 87 % 1026,5 hPa 0,0 mm W 268 0,0 km/h (0 Bft)
29.03.2017 22:00 6,9 C 89 % 1026,5 hPa 0,0 mm W 268 1,6 km/h (1 Bft)
29.03.2017 22:05 7,0 C 89 % 1026,6 hPa 0,0 mm W 268 0,0 km/h (0 Bft)
29.03.2017 22:10 7,3 C 89 % 1026,5 hPa 0,0 mm W 268 1,6 km/h (1 Bft)
29.03.2017 22:15 7,7 C 88 % 1026,6 hPa 0,0 mm W 268 1,6 km/h (1 Bft)
29.03.2017 22:20 7,9 C 88 % 1026,7 hPa 0,0 mm W 268 1,6 km/h (1 Bft)
29.03.2017 22:25 7,9 C 88 % 1026,7 hPa 0,0 mm W 268 0,0 km/h (0 Bft)
29.03.2017 22:30 7,7 C 88 % 1026,7 hPa 0,0 mm W 268 0,0 km/h (0 Bft)
29.03.2017 22:35 7,4 C 89 % 1026,8 hPa 0,0 mm W 268 0,0 km/h (0 Bft)
29.03.2017 22:40 7,6 C 90 % 1026,9 hPa 0,0 mm W 268 0,0 km/h (0 Bft)
29.03.2017 22:45 7,4 C 89 % 1026,9 hPa 0,0 mm W 268 0,0 km/h (0 Bft)
29.03.2017 22:50 7,6 C 90 % 1026,8 hPa 0,0 mm W 268 0,0 km/h (0 Bft)
29.03.2017 22:55 8,0 C 89 % 1026,9 hPa 0,0 mm W 268 1,6 km/h (1 Bft)
29.03.2017 23:00 8,2 C 88 % 1026,9 hPa 0,0 mm W 268 3,2 km/h (1 Bft)
29.03.2017 23:05 8,4 C 87 % 1027,0 hPa 0,0 mm W 268 1,6 km/h (1 Bft)
29.03.2017 23:10 8,2 C 86 % 1027,0 hPa 0,0 mm W 268 3,2 km/h (1 Bft)
29.03.2017 23:15 7,9 C 87 % 1027,0 hPa 0,0 mm W 268 3,2 km/h (1 Bft)
29.03.2017 23:20 7,7 C 87 % 1027,0 hPa 0,0 mm W 268 1,6 km/h (1 Bft)
29.03.2017 23:25 7,6 C 87 % 1027,1 hPa 0,0 mm W 268 0,0 km/h (0 Bft)
29.03.2017 23:30 7,5 C 88 % 1027,0 hPa 0,0 mm W 268 1,6 km/h (1 Bft)
29.03.2017 23:35 7,1 C 88 % 1027,1 hPa 0,0 mm W 268 1,6 km/h (1 Bft)
29.03.2017 23:40 7,1 C 88 % 1027,1 hPa 0,0 mm W 268 1,6 km/h (1 Bft)
29.03.2017 23:45 7,0 C 89 % 1027,1 hPa 0,0 mm W 268 3,2 km/h (1 Bft)
29.03.2017 23:50 7,1 C 88 % 1027,1 hPa 0,0 mm W 268 3,2 km/h (1 Bft)
29.03.2017 23:55 7,2 C 88 % 1027,1 hPa 0,0 mm W 268 3,2 km/h (1 Bft)
_ Min-Zeit 03:25 16:30 17:15 - - - 01:20
Minimum _ 2,8 C 48 % 1024,4 hPa - - - 0,0 km/h (0 Bft)
_ Max-Zeit 13:50 04:40 10:40 00:00 - - 14:20
Maximum _ 18,8 C 92 % 1027,7 hPa 0,0 mm - - 20,9 km/h
W (4 Bft)
Durchschnitt _ 10,5 C 74 % 1026,2 hPa #0,0 mm W - 6,4 km/h (2 Bft)